NORBI (46494 NORAD) Tracking and Keplerian Element Data

This shows tracking and keplerian element data for the satellite.

Feedback or suggestion? Click here.




ElementValue
Catalog46494
NameNORBI
Epoch Orbit965
Epoch Day336.91042093
Epoch Year2020
RAAN269.822
Inclination97.6734
Eccentricity0.0019571
Argument of Perigee29.3322
Mean Anonmoly330.9
Mean Motion15.03377021
Decay Rate1.37E-05
L11 46494U 20068J 20336.91042093 .00001370 00000-0 10501-3 0 9996
L22 46494 97.6734 269.8220 0019571 29.3322 330.9000 15.03377021 9652

Live tracking and technical data element details for NORBI (NORAD 46494). NORBI can be tracked NOW for your location showing map with azimuth and elevation plus other details from your city location.

Track the satellite on the map from your city or location and see movement details for azimuth, elevation, latitude, longitude, range, height, and movement on the map or in text.







IsCatalogInMostPopularTable: catalog: 46494, numindb: 34
Update: records affected: 1



GetName: 46494 NORBI

Hit Count: updated at: Thu, 03 Dec 2020 06:59:49 GMT